Clarion, IA

4:12 PM CDT on April 29, 2017 (GMT -0500)
Clarion Municipal

Weather History for KCAV - September, 2013

Change the Weather History Date:

Monday, September 30, 2013

  Actual Average Record
Temperature  
Mean Temperature 64 °F -  
Max Temperature 78 °F 72 °F 90 °F (1952)
Min Temperature 51 °F 45 °F 24 °F (1984)
Growing Degree Days 14 (Base 50)    
Moisture  
Dew Point 47 °F    
Average Humidity 59    
Maximum Humidity 88    
Minimum Humidity 30    
Precipitation  
Precipitation 0.00 in - - ()
Sea Level Pressure  
Sea Level Pressure 29.79 in    
Wind  
Wind Speed 13 mph (South)    
Max Wind Speed 26 mph    
Max Gust Speed 36 mph    
Visibility 10 miles    
Events      
Averages and records for this station are not official NWS values.
T = Trace of Precipitation, MM = Missing Value Source: NWS Daily Summary

Daily Weather History Graph

Daily Weather History Graph

Search for Another Location

Airport or City:

Trip Planner

Search our weather history database for the weather conditions in past years. The results will help you decide how hot, cold, wet, or windy it might be!

Date:

Astronomy

Sep. 30, 2013 Rise Set
Actual Time 7:11 AM CDT 6:57 PM CDT
Civil Twilight 6:43 AM CDT 7:25 PM CDT
Nautical Twilight 6:10 AM CDT 7:58 PM CDT
Astronomical Twilight 5:37 AM CDT 8:31 PM CDT
Moon 2:43 AM CDT (9/30) 4:33 PM CDT (9/30)
Length of Visible Light 12h 42m
Length of Day
11h 46m
Waning Crescent, 19% of the Moon is Illuminated
Sep 30
Waning Crescent
Oct 4
New
Oct 11
First Quarter
Oct 18
Full
Oct 26
Last Quarter

Hourly Weather History & Observations

Time (CDT) Temp. Dew Point Humidity Pressure Visibility Wind Dir Wind Speed Gust Speed Precip Events Conditions
12:15 AM 55.4 °F 44.6 °F 67% 29.90 in 10.0 mi South 10.4 mph - N/A   Clear
12:35 AM 53.6 °F 44.6 °F 72% 29.90 in 10.0 mi South 9.2 mph - N/A   Clear
12:55 AM 53.6 °F 44.6 °F 72% 29.90 in 10.0 mi South 10.4 mph - N/A   Clear
1:15 AM 53.6 °F 46.4 °F 77% 29.89 in 10.0 mi South 11.5 mph - N/A   Clear
1:35 AM 53.6 °F 46.4 °F 77% 29.89 in 10.0 mi South 10.4 mph - N/A   Clear
1:55 AM 53.6 °F 46.4 °F 77% 29.88 in 10.0 mi South 11.5 mph - N/A   Clear
2:15 AM 53.6 °F 46.4 °F 77% 29.88 in 10.0 mi South 11.5 mph 17.3 mph N/A   Clear
2:35 AM 53.6 °F 46.4 °F 77% 29.87 in 10.0 mi South 11.5 mph - N/A   Clear
2:55 AM 53.6 °F 46.4 °F 77% 29.87 in 10.0 mi South 10.4 mph - N/A   Clear
3:15 AM 53.6 °F 46.4 °F 77% 29.87 in 10.0 mi South 10.4 mph - N/A   Clear
3:35 AM 53.6 °F 46.4 °F 77% 29.86 in 10.0 mi South 9.2 mph 16.1 mph N/A   Clear
3:55 AM 53.6 °F 46.4 °F 77% 29.85 in 10.0 mi South 10.4 mph 17.3 mph N/A   Clear
4:15 AM 53.6 °F 46.4 °F 77% 29.85 in 10.0 mi South 11.5 mph - N/A   Clear
4:35 AM 53.6 °F 46.4 °F 77% 29.85 in 10.0 mi South 9.2 mph - N/A   Clear
4:55 AM 51.8 °F 46.4 °F 82% 29.86 in 10.0 mi South 10.4 mph - N/A   Clear
5:15 AM 51.8 °F 46.4 °F 82% 29.84 in 10.0 mi South 12.7 mph 18.4 mph N/A   Clear
5:35 AM 51.8 °F 46.4 °F 82% 29.84 in 10.0 mi South 11.5 mph - N/A   Clear
5:55 AM 51.8 °F 46.4 °F 82% 29.85 in 10.0 mi South 10.4 mph 17.3 mph N/A   Clear
6:15 AM 51.8 °F 46.4 °F 82% 29.85 in 10.0 mi South 10.4 mph - N/A   Clear
6:35 AM 51.8 °F 46.4 °F 82% 29.85 in 10.0 mi South 12.7 mph - N/A   Clear
6:55 AM 51.8 °F 46.4 °F 82% 29.85 in 10.0 mi South 11.5 mph - N/A   Clear
7:15 AM 51.8 °F 48.2 °F 88% 29.83 in 10.0 mi South 11.5 mph - N/A   Clear
7:35 AM 51.8 °F 48.2 °F 88% 29.83 in 10.0 mi South 12.7 mph - N/A   Clear
7:55 AM 53.6 °F 48.2 °F 82% 29.83 in 10.0 mi South 13.8 mph 19.6 mph N/A   Clear
8:15 AM 55.4 °F 48.2 °F 77% 29.83 in 10.0 mi South 15.0 mph - N/A   Clear
8:35 AM 55.4 °F 48.2 °F 77% 29.83 in 10.0 mi South 16.1 mph 21.9 mph N/A   Clear
8:55 AM 57.2 °F 48.2 °F 72% 29.82 in 10.0 mi South 15.0 mph 20.7 mph N/A   Clear
9:15 AM 57.2 °F 50.0 °F 77% 29.82 in 10.0 mi South 16.1 mph - N/A   Clear
9:35 AM 60.8 °F 50.0 °F 68% 29.82 in 10.0 mi South 15.0 mph 21.9 mph N/A   Clear
9:55 AM 62.6 °F 50.0 °F 63% 29.82 in 10.0 mi South 16.1 mph 24.2 mph N/A   Clear
10:15 AM 64.4 °F 50.0 °F 59% 29.82 in 10.0 mi South 17.3 mph 27.6 mph N/A   Clear
10:35 AM 66.2 °F 50.0 °F 56% 29.81 in 10.0 mi South 17.3 mph 25.3 mph N/A   Clear
10:55 AM 68.0 °F 48.2 °F 49% 29.81 in 10.0 mi South 20.7 mph 27.6 mph N/A   Clear
11:15 AM 69.8 °F 48.2 °F 46% 29.81 in 10.0 mi SSW 21.9 mph 28.8 mph N/A   Clear
11:35 AM 71.6 °F 48.2 °F 43% 29.80 in 10.0 mi South 19.6 mph 29.9 mph N/A   Clear
11:55 AM 71.6 °F 48.2 °F 43% 29.79 in 10.0 mi SSW 19.6 mph 32.2 mph N/A   Clear
12:15 PM 73.4 °F 48.2 °F 41% 29.78 in 10.0 mi South 20.7 mph 29.9 mph N/A   Clear
12:35 PM 75.2 °F 48.2 °F 38% 29.78 in 10.0 mi SSW 20.7 mph 27.6 mph N/A   Clear
12:55 PM 75.2 °F 48.2 °F 38% 29.77 in 10.0 mi South 21.9 mph - N/A   Clear
1:15 PM 75.2 °F 48.2 °F 38% 29.76 in 10.0 mi South 23.0 mph 32.2 mph N/A   Clear
1:35 PM 77.0 °F 48.2 °F 36% 29.75 in 10.0 mi South 20.7 mph 28.8 mph N/A   Clear
1:55 PM 77.0 °F 48.2 °F 36% 29.74 in 10.0 mi South 24.2 mph 32.2 mph N/A   Clear
2:15 PM 78.8 °F 48.2 °F 34% 29.73 in 10.0 mi South 23.0 mph 31.1 mph N/A   Clear
2:35 PM 78.8 °F 48.2 °F 34% 29.73 in 10.0 mi South 20.7 mph 35.7 mph N/A   Clear
2:55 PM 78.8 °F 48.2 °F 34% 29.73 in 10.0 mi South 26.5 mph 35.7 mph N/A   Clear
3:15 PM 78.8 °F 48.2 °F 34% 29.72 in 10.0 mi South 21.9 mph 31.1 mph N/A   Clear
3:35 PM 78.8 °F 48.2 °F 34% 29.71 in 10.0 mi South 23.0 mph 32.2 mph N/A   Clear
3:55 PM 78.8 °F 46.4 °F 32% 29.71 in 10.0 mi SSW 24.2 mph 29.9 mph N/A   Clear
4:15 PM 77.0 °F 46.4 °F 34% 29.71 in 10.0 mi South 18.4 mph 32.2 mph N/A   Clear
4:35 PM 77.0 °F 46.4 °F 34% 29.70 in 10.0 mi South 23.0 mph 29.9 mph N/A   Clear
4:55 PM 78.8 °F 44.6 °F 30% 29.70 in 10.0 mi South 19.6 mph 33.4 mph N/A   Clear
5:15 PM 77.0 °F 44.6 °F 32% 29.71 in 10.0 mi South 18.4 mph 25.3 mph N/A   Clear
5:35 PM 77.0 °F 44.6 °F 32% 29.71 in 10.0 mi SSW 16.1 mph 27.6 mph N/A   Clear
5:55 PM 75.2 °F 44.6 °F 34% 29.71 in 10.0 mi South 15.0 mph 25.3 mph N/A   Clear
6:15 PM 75.2 °F 44.6 °F 34% 29.72 in 10.0 mi South 15.0 mph 24.2 mph N/A   Clear
6:35 PM 73.4 °F 44.6 °F 36% 29.72 in 10.0 mi South 13.8 mph 23.0 mph N/A   Clear
6:55 PM 69.8 °F 46.4 °F 43% 29.72 in 10.0 mi South 12.7 mph - N/A   Clear
7:15 PM 68.0 °F 46.4 °F 46% 29.72 in 10.0 mi South 8.1 mph - N/A   Clear
7:35 PM 66.2 °F 48.2 °F 52% 29.73 in 10.0 mi South 10.4 mph - N/A   Clear
7:55 PM 66.2 °F 48.2 °F 52% 29.73 in 10.0 mi South 10.4 mph - N/A   Clear
8:15 PM 64.4 °F 48.2 °F 56% 29.73 in 10.0 mi South 10.4 mph - N/A   Clear
8:35 PM 64.4 °F 48.2 °F 56% 29.73 in 10.0 mi South 11.5 mph - N/A   Clear
8:55 PM 64.4 °F 48.2 °F 56% 29.74 in 10.0 mi South 11.5 mph - N/A   Clear
9:15 PM 64.4 °F 48.2 °F 56% 29.74 in 10.0 mi South 12.7 mph - N/A   Clear
9:35 PM 62.6 °F 48.2 °F 59% 29.75 in 10.0 mi South 11.5 mph - N/A   Clear
9:55 PM 62.6 °F 48.2 °F 59% 29.75 in 10.0 mi South 11.5 mph - N/A   Clear
10:15 PM 62.6 °F 48.2 °F 59% 29.75 in 10.0 mi South 10.4 mph - N/A   Clear
10:35 PM 60.8 °F 48.2 °F 63% 29.76 in 10.0 mi South 10.4 mph - N/A   Clear
10:55 PM 60.8 °F 48.2 °F 63% 29.76 in 10.0 mi South 10.4 mph - N/A   Clear
11:15 PM 60.8 °F 48.2 °F 63% 29.76 in 10.0 mi South 9.2 mph - N/A   Clear
11:35 PM 59.0 °F 50.0 °F 72% 29.76 in 10.0 mi South 9.2 mph - N/A   Clear
11:55 PM 59.0 °F 50.0 °F 72% 29.76 in 10.0 mi South 9.2 mph - N/A   Clear